Regional Weather Roundup
Issued by NWS

Home | Current Version | Previous Version | Graphics & Text | Print | Product List | Glossary On
Versions: 1 2 3 4 5 6 7 8 9 10 11 12 13 14 15 16 17 18 19 20 21 22 23 24 25 26 27 28 29 30 31 32 33 34 35 36 37 38 39 40 41 42 43 44 45 46 47 48 49 50
000
ASUS45 KCYS 260210
RWRWY

WYOMING REGIONAL WEATHER ROUNDUP
NATIONAL WEATHER SERVICE CHEYENNE WY
800 PM MDT FRI JUL 25 2014

NOTE:  "FAIR" INDICATES FEW OR NO CLOUDS BELOW 12,000 FEET
WITH NO SIGNIFICANT WEATHER AND/OR OBSTRUCTIONS TO VISIBILITY.

WYZ001-260300-
YELLOWSTONE NATIONAL PARK

CITY           SKY/WX    TMP DP  RH WIND       PRES   REMARKS
LK YELLOWSTONE   N/A     64  24  21 VRB3      30.26R
W YELLOWSTONE  NOT AVBL

$$
WYZ002>013-054>058-071-098>099-260300-
NORTHERN WYOMING

CITY           SKY/WX    TMP DP  RH WIND       PRES   REMARKS
JACKSON        CLEAR     75  23  14 SW12      30.14S
CODY           NOT AVBL
GREYBULL       CLEAR     90  19   7 N17G26    29.85R
WORLAND        PTCLDY    86  41  20 NE6       29.86R
SHERIDAN       CLEAR     78  42  27 N10       29.91R
BUFFALO        CLEAR     79  43  27 N12       29.97R
GILLETTE       PTCLDY    82  47  29 NE13      29.89R
HULETT         FAIR      73  52  46 MISG      29.92
NEWCASTLE      FAIR      81  41  24 SE16      29.88

$$
WYZ014>020-022>026-101>103-260300-
CENTRAL WYOMING

CITY           SKY/WX    TMP DP  RH WIND       PRES   REMARKS
BIG PINEY      CLEAR     76  25  15 NW15      30.19R
PINEDALE       CLEAR     70  32  24 NW17      30.20R
DUBOIS         FAIR      72  21  15 NW17G25   30.15S
LANDER         CLEAR     86  29  12 W15       29.98R
RIVERTON       CLEAR     85  24  11 NW17G31   29.98R
CASPER         CLEAR     87  26  11 NW13      29.93S
DOUGLAS        CLEAR     81  52  36 SE15G22   29.92R

$$
WYZ021-027>030-104>119-260300-
SOUTHERN WYOMING

CITY           SKY/WX    TMP DP  RH WIND       PRES   REMARKS
EVANSTON       CLEAR     79  32  18 NW14      30.18S
KEMMERER       CLEAR     77  23  13 W13G18    30.20S
FORT BRIDGER   FAIR      82  28  14 W17       30.20S
ROCK SPRINGS   CLEAR     82  24  12 NW17G31   30.13R
DIXON          MOCLDY    71  45  38 S24G49    30.14F
RAWLINS        CLEAR     83  32  16 SW15      30.12R
SARATOGA       FAIR      72  48  43 SE17G23   30.16F
LARAMIE        MOCLDY    70  43  37 SW16      30.18F
CHEYENNE       CLOUDY    72  52  49 SW14G32   30.13F
TORRINGTON     MOCLDY    73  61  65 SE15      29.90F
PINE BLUFFS    FAIR      68  59  73 CALM      30.07S

$$



USA.gov is the U.S. government's official web portal to all federal, state and local government web resources and services.